Hourly Data Report for September 02, 2016

All times are specified in Local Standard Time (LST). Add 1 hour to adjust for Daylight Saving Time where and when it is observed.

CORAL HARBOUR A
NUNAVUT

64°11'36.000" N
83°21'34.000" W
62.20 m
2301002
71915
YZS

Download Data

Hourly Data (September 2016)
Hourly Data Report for September 2, 2016
Temp Definition
°C
Dew Point Temp Definition
°C
Rel Hum Definition
%
Wind Dir Definition
10's deg

Wind Spd Definition
km/h
Visibility Definition
km
Stn Press Definition
kPa
Hmdx Definition


Wind Chill Definition


Weather Definition


TIME
00:00 Legend Double Dagger 0.9 -0.6 90 35 14 24.1 101.50     LegendNANA
01:00 Legend Double Dagger 0.7 -0.8 90 34 14 24.1 101.51     Mainly Clear
02:00 Legend Double Dagger 1.9 0.0 87 34 10 24.1 101.54     LegendNANA
03:00 Legend Double Dagger 1.8 -0.1 87 34 8 24.1 101.53     LegendNANA
04:00 Legend Double Dagger 1.8 -0.3 86 36 10 24.1 101.54     Mostly Cloudy
05:00 Legend Double Dagger 2.2 -0.6 82 33 11 24.1 101.55     LegendNANA
06:00 Legend Double Dagger 2.3 -0.8 80 33 14 24.1 101.52     LegendNANA
07:00 Legend Double Dagger 2.8 -1.4 74 34 10 24.1 101.52     Mostly Cloudy
08:00 Legend Double Dagger 2.9 -1.5 73 2 8 24.1 101.52     LegendNANA
09:00 Legend Double Dagger 3.0 -1.2 74 32 11 24.1 101.52     LegendNANA
10:00 Legend Double Dagger 3.6 -1.4 70 1 3 24.1 101.52     Mainly Clear
11:00 Legend Double Dagger 4.6 -0.8 68 31 5 24.1 101.51     LegendNANA
12:00 Legend Double Dagger 5.4 -0.9 64 12 3 24.1 101.50     LegendNANA
13:00 Legend Double Dagger 5.5 0.1 68 16 13 24.1 101.53     Mainly Clear
14:00 Legend Double Dagger 5.8 0.4 68 18 11 24.1 101.53     LegendNANA
15:00 Legend Double Dagger 6.0 -0.1 65 17 10 24.1 101.50     LegendNANA
16:00 Legend Double Dagger 6.2 0.3 66 18 15 24.1 101.48     Clear
17:00 Legend Double Dagger 6.1 0.7 68 19 13 24.1 101.46     LegendNANA
18:00 Legend Double Dagger 5.7 0.9 71 19 15 24.1 101.43     LegendNANA
19:00 Legend Double Dagger 5.1 1.0 75 19 13 24.1 101.42     Clear
20:00 Legend Double Dagger 3.7 1.6 86 18 9 24.1 101.41     LegendNANA
21:00 Legend Double Dagger 3.1 1.6 90 22 11 24.1 101.45     LegendNANA
22:00 Legend Double Dagger 2.8 1.2 89 22 13 24.1 101.43     Clear
23:00 Legend Double Dagger 1.8 0.5 91 24 10 24.1 101.43     LegendNANA

Notes on Data Quality.

Legend

  • E = Estimated
  • M = Missing
  • NA = Not Available
  • ‡ = Partner data that is not subject to review by the National Climate Archives
Date modified: